Location: Argonnex
(45.9500°N, 6.1333°E)
Time: 20:16:57
(UTC+00:00)

NOAA 16 DEB - Visible Passes

Search period start: 02 March 2024 00:00
Search period end: 12 March 2024 00:00
Orbit: 753 x 806 km, 99.0° (Epoch: 01 March)

Date Brightness Start Highest point End Pass type
(mag) Time Alt. Az. Time Alt. Az. Time Alt. Az.
02 Mar ? 02:03:26 10° E 02:05:48 13° NE 02:08:10 10° NNE visible
02 Mar ? 03:39:13 10° SSE 03:44:16 85° ENE 03:49:19 10° NNW visible
02 Mar ? 05:21:59 10° WSW 05:24:08 13° W 05:26:18 10° WNW visible
03 Mar ? 03:07:05 10° SE 03:11:51 44° ENE 03:16:36 10° N visible
03 Mar ? 04:47:09 10° SSW 04:51:15 25° W 04:55:22 10° NW visible
03 Mar ? 18:35:08 10° NNW 18:38:01 15° WNW 18:40:54 10° W visible
04 Mar ? 02:35:35 10° ESE 02:39:34 24° ENE 02:43:34 10° N visible
04 Mar ? 04:13:40 10° S 04:18:31 48° W 04:23:23 10° NNW visible
04 Mar ? 18:01:38 10° N 18:05:52 27° WNW 18:10:07 10° WSW visible
05 Mar ? 02:05:01 10° E 02:07:27 14° NE 02:09:53 10° NNE visible
05 Mar ? 03:40:53 10° SSE 03:45:55 87° ENE 03:50:58 10° NNW visible
05 Mar ? 05:23:47 10° WSW 05:25:49 12° W 05:27:51 10° WNW visible
06 Mar ? 03:08:42 10° SE 03:13:28 45° ENE 03:18:15 10° N visible
06 Mar ? 04:48:49 10° SSW 04:52:53 24° W 04:56:58 10° NW visible
06 Mar ? 18:36:46 10° NNW 18:39:37 15° WNW 18:42:28 10° W visible
07 Mar ? 02:37:09 10° ESE 02:41:10 25° ENE 02:45:10 10° N visible
07 Mar ? 04:15:16 10° S 04:20:06 47° W 04:24:58 10° NNW visible
07 Mar ? 18:03:13 10° N 18:07:26 27° WNW 18:11:40 10° WSW visible
08 Mar ? 02:06:30 10° E 02:08:59 14° NE 02:11:29 10° NNE visible
08 Mar ? 03:42:27 10° SSE 03:47:29 88° ENE 03:52:32 10° NNW visible
08 Mar ? 05:25:28 10° WSW 05:27:23 12° W 05:29:18 10° WNW visible
09 Mar ? 03:10:13 10° SE 03:14:59 46° ENE 03:19:46 10° N visible
09 Mar ? 04:50:24 10° SSW 04:54:25 24° W 04:58:28 10° NW visible
09 Mar ? 18:38:17 10° NNW 18:41:07 15° WNW 18:43:56 10° W visible
10 Mar ? 02:38:35 10° ESE 02:42:38 25° ENE 02:46:40 10° N visible
10 Mar ? 04:16:46 10° S 04:21:35 46° W 04:26:26 10° NNW visible
10 Mar ? 18:04:41 10° N 18:08:54 27° WNW 18:13:09 10° WSW visible
11 Mar ? 02:07:53 10° E 02:10:26 14° NE 02:12:59 10° NNE visible
11 Mar ? 03:43:54 10° SSE 03:48:55 89° ENE 03:53:58 10° NNW visible
11 Mar ? 05:27:02 10° WSW 05:28:50 12° W 05:30:38 10° WNW visible
